Time,TemperatureF,DewpointF,PressureIn,WindDirection,WindDirectionDegrees,WindSpeedMPH,WindSpeedGustMPH,Humidity,HourlyPrecipIn,Conditions,Clouds,dailyrainin,SoftwareType,DateUTC
2013-01-22 00:01:00,28.5,13.9,30.19,WNW,294,1.0,4.0,54,0.00,,,0.00,Wunderground v.1.15,2013-01-22 05:01:00,
2013-01-22 00:03:00,28.5,13.9,30.19,WNW,300,0.0,4.0,54,0.00,,,0.00,Wunderground v.1.15,2013-01-22 05:03:00,
2013-01-22 00:04:00,28.5,13.9,30.19,WNW,294,3.0,4.0,54,0.00,,,0.00,Wunderground v.1.15,2013-01-22 05:04:00,
2013-01-22 00:06:00,28.5,13.9,30.19,NW,323,0.0,4.0,54,0.00,,,0.00,Wunderground v.1.15,2013-01-22 05:06:00,
2013-01-22 00:11:00,28.4,13.9,30.19,West,271,4.0,8.0,54,0.00,,,0.00,Wunderground v.1.15,2013-01-22 05:11:00,
2013-01-22 00:17:00,28.3,14.2,30.19,WNW,295,3.0,11.0,55,0.00,,,0.00,Wunderground v.1.15,2013-01-22 05:17:00,
2013-01-22 00:22:00,28.2,13.7,30.19,WNW,293,7.0,7.0,54,0.00,,,0.00,Wunderground v.1.15,2013-01-22 05:22:00,
2013-01-22 00:27:00,28.1,13.6,30.19,ENE,71,2.0,7.0,54,0.00,,,0.00,Wunderground v.1.15,2013-01-22 05:27:00,
2013-01-22 00:32:00,28.0,13.9,30.18,WNW,297,7.0,7.0,55,0.00,,,0.00,Wunderground v.1.15,2013-01-22 05:32:00,
2013-01-22 00:37:00,27.9,13.4,30.18,West,281,0.0,7.0,54,0.00,,,0.00,Wunderground v.1.15,2013-01-22 05:37:00,
2013-01-22 00:43:00,27.7,13.6,30.19,West,262,7.0,7.0,55,0.00,,,0.00,Wunderground v.1.15,2013-01-22 05:43:00,
2013-01-22 00:48:00,27.6,14.3,30.18,WNW,296,4.0,7.0,57,0.00,,,0.00,Wunderground v.1.15,2013-01-22 05:48:00,
2013-01-22 00:53:00,27.4,14.1,30.19,WNW,285,0.0,4.0,57,0.00,,,0.00,Wunderground v.1.15,2013-01-22 05:53:00,
2013-01-22 00:59:00,27.1,14.3,30.18,West,265,1.0,4.0,58,0.00,,,0.00,Wunderground v.1.15,2013-01-22 05:59:00,
2013-01-22 01:04:00,26.9,14.1,30.18,WNW,287,2.0,11.0,58,0.00,,,0.00,Wunderground v.1.15,2013-01-22 06:04:00,
2013-01-22 01:09:00,26.8,13.6,30.18,WNW,299,5.0,11.0,57,0.00,,,0.00,Wunderground v.1.15,2013-01-22 06:09:00,
2013-01-22 01:14:00,26.8,14.0,30.18,West,273,4.0,5.0,58,0.00,,,0.00,Wunderground v.1.15,2013-01-22 06:14:00,
2013-01-22 01:19:00,26.8,13.6,30.18,WNW,292,0.0,6.0,57,0.00,,,0.00,Wunderground v.1.15,2013-01-22 06:19:00,
2013-01-22 01:24:00,26.7,14.3,30.18,NW,319,4.0,4.0,59,0.00,,,0.00,Wunderground v.1.15,2013-01-22 06:24:00,
2013-01-22 01:30:00,26.5,13.7,30.18,West,269,2.0,2.0,58,0.00,,,0.00,Wunderground v.1.15,2013-01-22 06:30:00,
2013-01-22 01:35:00,26.3,13.1,30.18,West,265,1.0,6.0,57,0.00,,,0.00,Wunderground v.1.15,2013-01-22 06:35:00,
2013-01-22 01:41:00,26.2,13.8,30.18,West,281,2.0,2.0,59,0.00,,,0.00,Wunderground v.1.15,2013-01-22 06:41:00,
2013-01-22 01:46:00,26.1,13.7,30.18,NW,309,12.0,12.0,59,0.00,,,0.00,Wunderground v.1.15,2013-01-22 06:46:00,
2013-01-22 01:51:00,26.0,13.6,30.18,NW,304,1.0,2.0,59,0.00,,,0.00,Wunderground v.1.15,2013-01-22 06:51:00,
2013-01-22 01:57:00,26.0,12.8,30.18,West,274,6.0,11.0,57,0.00,,,0.00,Wunderground v.1.15,2013-01-22 06:57:00,
2013-01-22 02:02:00,26.0,12.8,30.18,West,280,3.0,14.0,57,0.00,,,0.00,Wunderground v.1.15,2013-01-22 07:02:00,
2013-01-22 02:07:00,25.9,12.7,30.18,WNW,302,1.0,14.0,57,0.00,,,0.00,Wunderground v.1.15,2013-01-22 07:07:00,
2013-01-22 02:12:00,25.8,12.6,30.18,WNW,282,3.0,10.0,57,0.00,,,0.00,Wunderground v.1.15,2013-01-22 07:12:00,
2013-01-22 02:17:00,25.8,12.6,30.18,NW,304,0.0,11.0,57,0.00,,,0.00,Wunderground v.1.15,2013-01-22 07:17:00,
2013-01-22 02:22:00,25.7,12.6,30.18,West,261,5.0,7.0,57,0.00,,,0.00,Wunderground v.1.15,2013-01-22 07:22:00,
2013-01-22 02:27:00,25.6,12.9,30.18,WNW,287,3.0,12.0,58,0.00,,,0.00,Wunderground v.1.15,2013-01-22 07:27:00,
2013-01-22 02:32:00,25.5,12.0,30.18,West,273,4.0,11.0,56,0.00,,,0.00,Wunderground v.1.15,2013-01-22 07:32:00,
2013-01-22 02:37:00,25.4,11.9,30.18,West,272,0.0,11.0,56,0.00,,,0.00,Wunderground v.1.15,2013-01-22 07:37:00,
2013-01-22 02:42:00,25.3,12.2,30.18,WNW,290,0.0,9.0,57,0.00,,,0.00,Wunderground v.1.15,2013-01-22 07:42:00,
2013-01-22 02:47:00,25.2,11.7,30.18,NW,304,6.0,13.0,56,0.00,,,0.00,Wunderground v.1.15,2013-01-22 07:47:00,
2013-01-22 02:52:00,25.1,11.6,30.18,SW,236,5.0,9.0,56,0.00,,,0.00,Wunderground v.1.15,2013-01-22 07:52:00,
2013-01-22 02:57:00,25.1,12.0,30.18,West,265,0.0,9.0,57,0.00,,,0.00,Wunderground v.1.15,2013-01-22 07:57:00,
2013-01-22 03:02:00,25.0,11.5,30.18,West,267,1.0,9.0,56,0.00,,,0.00,Wunderground v.1.15,2013-01-22 08:02:00,
2013-01-22 03:07:00,24.9,11.8,30.18,West,279,0.0,9.0,57,0.00,,,0.00,Wunderground v.1.15,2013-01-22 08:07:00,
2013-01-22 03:12:00,24.8,11.3,30.18,NW,304,5.0,10.0,56,0.00,,,0.00,Wunderground v.1.15,2013-01-22 08:12:00,
2013-01-22 03:17:00,24.8,11.7,30.18,WSW,244,10.0,10.0,57,0.00,,,0.00,Wunderground v.1.15,2013-01-22 08:17:00,
2013-01-22 03:22:00,24.7,11.6,30.18,West,271,2.0,13.0,57,0.00,,,0.00,Wunderground v.1.15,2013-01-22 08:22:00,
2013-01-22 03:27:00,24.6,11.9,30.18,NNW,347,4.0,13.0,58,0.00,,,0.00,Wunderground v.1.15,2013-01-22 08:27:00,
2013-01-22 03:32:00,24.5,11.8,30.19,NW,304,9.0,10.0,58,0.00,,,0.00,Wunderground v.1.15,2013-01-22 08:32:00,
2013-01-22 03:37:00,24.4,11.7,30.18,WSW,250,2.0,16.0,58,0.00,,,0.00,Wunderground v.1.15,2013-01-22 08:37:00,
2013-01-22 03:42:00,24.3,12.0,30.18,SW,228,0.0,8.0,59,0.00,,,0.00,Wunderground v.1.15,2013-01-22 08:42:00,
2013-01-22 03:47:00,24.1,11.4,30.18,West,276,8.0,10.0,58,0.00,,,0.00,Wunderground v.1.15,2013-01-22 08:47:00,
2013-01-22 03:52:00,24.0,11.0,30.18,WNW,302,1.0,8.0,57,0.00,,,0.00,Wunderground v.1.15,2013-01-22 08:52:00,
2013-01-22 03:57:00,23.9,10.9,30.18,WNW,297,6.0,9.0,57,0.00,,,0.00,Wunderground v.1.15,2013-01-22 08:57:00,
2013-01-22 04:02:00,23.8,10.4,30.17,SW,236,4.0,13.0,56,0.00,,,0.00,Wunderground v.1.15,2013-01-22 09:02:00,
2013-01-22 04:07:00,23.7,10.3,30.18,NW,311,3.0,13.0,56,0.00,,,0.00,Wunderground v.1.15,2013-01-22 09:07:00,
2013-01-22 04:12:00,23.6,9.8,30.18,WNW,293,7.0,10.0,55,0.00,,,0.00,Wunderground v.1.15,2013-01-22 09:12:00,
2013-01-22 04:17:00,23.5,9.3,30.18,West,267,4.0,11.0,54,0.00,,,0.00,Wunderground v.1.15,2013-01-22 09:17:00,
2013-01-22 04:22:00,23.5,8.9,30.18,WNW,290,3.0,11.0,53,0.00,,,0.00,Wunderground v.1.15,2013-01-22 09:22:00,
2013-01-22 04:27:00,23.4,8.8,30.18,West,267,3.0,11.0,53,0.00,,,0.00,Wunderground v.1.15,2013-01-22 09:27:00,
2013-01-22 04:32:00,23.3,8.7,30.18,NW,322,6.0,6.0,53,0.00,,,0.00,Wunderground v.1.15,2013-01-22 09:32:00,
2013-01-22 04:37:00,23.2,8.2,30.19,NW,320,0.0,15.0,52,0.00,,,0.00,Wunderground v.1.15,2013-01-22 09:37:00,
2013-01-22 04:42:00,23.1,7.6,30.18,West,262,10.0,12.0,51,0.00,,,0.00,Wunderground v.1.15,2013-01-22 09:42:00,
2013-01-22 04:47:00,23.1,7.2,30.18,WNW,300,5.0,13.0,50,0.00,,,0.00,Wunderground v.1.15,2013-01-22 09:47:00,
2013-01-22 04:52:00,23.0,6.7,30.18,WNW,301,2.0,12.0,49,0.00,,,0.00,Wunderground v.1.15,2013-01-22 09:52:00,
2013-01-22 04:57:00,23.0,7.1,30.19,West,279,5.0,14.0,50,0.00,,,0.00,Wunderground v.1.15,2013-01-22 09:57:00,
2013-01-22 05:02:00,22.9,7.0,30.19,WNW,292,3.0,11.0,50,0.00,,,0.00,Wunderground v.1.15,2013-01-22 10:02:00,
2013-01-22 05:07:00,22.9,7.0,30.19,WNW,288,0.0,17.0,50,0.00,,,0.00,Wunderground v.1.15,2013-01-22 10:07:00,
2013-01-22 05:12:00,22.9,7.0,30.19,NNW,336,5.0,11.0,50,0.00,,,0.00,Wunderground v.1.15,2013-01-22 10:12:00,
2013-01-22 05:17:00,22.9,7.0,30.19,WNW,303,10.0,12.0,50,0.00,,,0.00,Wunderground v.1.15,2013-01-22 10:17:00,
2013-01-22 05:22:00,22.8,7.4,30.20,WNW,298,4.0,13.0,51,0.00,,,0.00,Wunderground v.1.15,2013-01-22 10:22:00,
2013-01-22 05:27:00,22.8,7.4,30.20,West,269,4.0,15.0,51,0.00,,,0.00,Wunderground v.1.15,2013-01-22 10:27:00,
2013-01-22 05:32:00,22.7,7.7,30.20,West,262,0.0,13.0,52,0.00,,,0.00,Wunderground v.1.15,2013-01-22 10:32:00,
2013-01-22 05:37:00,22.7,7.7,30.20,North,5,6.0,13.0,52,0.00,,,0.00,Wunderground v.1.15,2013-01-22 10:37:00,
2013-01-22 05:42:00,22.6,7.6,30.20,NW,304,10.0,20.0,52,0.00,,,0.00,Wunderground v.1.15,2013-01-22 10:42:00,
2013-01-22 05:47:00,22.6,8.0,30.21,WNW,284,6.0,20.0,53,0.00,,,0.00,Wunderground v.1.15,2013-01-22 10:47:00,
2013-01-22 05:52:00,22.6,7.6,30.21,NW,318,2.0,10.0,52,0.00,,,0.00,Wunderground v.1.15,2013-01-22 10:52:00,
2013-01-22 05:57:00,22.5,7.9,30.21,West,261,0.0,10.0,53,0.00,,,0.00,Wunderground v.1.15,2013-01-22 10:57:00,
2013-01-22 06:02:00,22.4,7.8,30.21,West,280,12.0,12.0,53,0.00,,,0.00,Wunderground v.1.15,2013-01-22 11:02:00,
2013-01-22 06:07:00,22.3,7.7,30.21,West,278,12.0,12.0,53,0.00,,,0.00,Wunderground v.1.15,2013-01-22 11:07:00,
2013-01-22 06:12:00,22.3,7.3,30.21,WNW,286,5.0,8.0,52,0.00,,,0.00,Wunderground v.1.15,2013-01-22 11:12:00,
2013-01-22 06:17:00,22.3,7.3,30.22,WNW,294,5.0,10.0,52,0.00,,,0.00,Wunderground v.1.15,2013-01-22 11:17:00,
2013-01-22 06:22:00,22.2,6.8,30.22,WNW,285,4.0,12.0,51,0.00,,,0.00,Wunderground v.1.15,2013-01-22 11:22:00,
2013-01-22 06:27:00,22.2,6.8,30.22,West,265,5.0,12.0,51,0.00,,,0.00,Wunderground v.1.15,2013-01-22 11:27:00,
2013-01-22 06:32:00,22.1,7.1,30.22,West,280,5.0,9.0,52,0.00,,,0.00,Wunderground v.1.15,2013-01-22 11:32:00,
2013-01-22 06:37:00,22.0,6.6,30.22,WNW,297,4.0,10.0,51,0.00,,,0.00,Wunderground v.1.15,2013-01-22 11:37:00,
2013-01-22 06:42:00,22.0,6.6,30.22,West,277,2.0,13.0,51,0.00,,,0.00,Wunderground v.1.15,2013-01-22 11:42:00,
2013-01-22 06:47:00,21.9,6.5,30.23,NNW,329,4.0,18.0,51,0.00,,,0.00,Wunderground v.1.15,2013-01-22 11:47:00,
2013-01-22 06:52:00,21.8,6.4,30.23,WNW,294,3.0,12.0,51,0.00,,,0.00,Wunderground v.1.15,2013-01-22 11:52:00,
2013-01-22 06:57:00,21.8,6.4,30.23,WNW,292,8.0,14.0,51,0.00,,,0.00,Wunderground v.1.15,2013-01-22 11:57:00,
2013-01-22 07:02:00,21.8,6.4,30.23,WNW,290,5.0,9.0,51,0.00,,,0.00,Wunderground v.1.15,2013-01-22 12:02:00,
2013-01-22 07:08:00,21.6,6.7,30.23,WNW,296,2.0,9.0,52,0.00,,,0.00,Wunderground v.1.15,2013-01-22 12:08:00,
2013-01-22 07:13:00,21.5,6.6,30.23,West,268,4.0,7.0,52,0.00,,,0.00,Wunderground v.1.15,2013-01-22 12:13:00,
2013-01-22 07:18:00,21.4,6.0,30.24,NW,323,10.0,17.0,51,0.00,,,0.00,Wunderground v.1.15,2013-01-22 12:18:00,
2013-01-22 07:23:00,21.3,6.0,30.24,West,274,1.0,12.0,51,0.00,,,0.00,Wunderground v.1.15,2013-01-22 12:23:00,
2013-01-22 07:28:00,21.2,6.3,30.24,West,263,6.0,19.0,52,0.00,,,0.00,Wunderground v.1.15,2013-01-22 12:28:00,
2013-01-22 07:33:00,21.1,6.2,30.24,WNW,296,14.0,14.0,52,0.00,,,0.00,Wunderground v.1.15,2013-01-22 12:33:00,
2013-01-22 07:38:00,21.1,6.2,30.24,NNE,19,2.0,15.0,52,0.00,,,0.00,Wunderground v.1.15,2013-01-22 12:38:00,
2013-01-22 07:43:00,21.0,6.5,30.24,West,266,9.0,9.0,53,0.00,,,0.00,Wunderground v.1.15,2013-01-22 12:43:00,
2013-01-22 07:48:00,20.9,6.0,30.24,WNW,286,5.0,10.0,52,0.00,,,0.00,Wunderground v.1.15,2013-01-22 12:48:00,
2013-01-22 07:53:00,20.9,6.0,30.25,NNW,333,0.0,11.0,52,0.00,,,0.00,Wunderground v.1.15,2013-01-22 12:53:00,
2013-01-22 07:58:00,20.8,6.3,30.24,West,261,4.0,11.0,53,0.00,,,0.00,Wunderground v.1.15,2013-01-22 12:58:00,
2013-01-22 08:03:00,20.8,6.3,30.25,WNW,288,3.0,5.0,53,0.00,,,0.00,Wunderground v.1.15,2013-01-22 13:03:00,
2013-01-22 08:08:00,20.7,5.8,30.25,NW,312,2.0,6.0,52,0.00,,,0.00,Wunderground v.1.15,2013-01-22 13:08:00,
2013-01-22 08:13:00,20.7,6.2,30.25,SW,232,0.0,10.0,53,0.00,,,0.00,Wunderground v.1.15,2013-01-22 13:13:00,
2013-01-22 08:18:00,20.7,6.2,30.26,NW,307,0.0,12.0,53,0.00,,,0.00,Wunderground v.1.15,2013-01-22 13:18:00,
2013-01-22 08:23:00,20.7,6.2,30.26,WNW,295,0.0,10.0,53,0.00,,,0.00,Wunderground v.1.15,2013-01-22 13:23:00,
2013-01-22 08:28:00,20.8,5.9,30.26,West,259,0.0,10.0,52,0.00,,,0.00,Wunderground v.1.15,2013-01-22 13:28:00,
2013-01-22 08:33:00,20.8,5.9,30.26,WNW,288,3.0,10.0,52,0.00,,,0.00,Wunderground v.1.15,2013-01-22 13:33:00,
2013-01-22 08:38:00,20.8,5.5,30.26,NW,325,10.0,16.0,51,0.00,,,0.00,Wunderground v.1.15,2013-01-22 13:38:00,
2013-01-22 08:43:00,20.8,5.5,30.26,WNW,301,10.0,10.0,51,0.00,,,0.00,Wunderground v.1.15,2013-01-22 13:43:00,
2013-01-22 08:48:00,20.9,5.6,30.26,WNW,286,2.0,10.0,51,0.00,,,0.00,Wunderground v.1.15,2013-01-22 13:48:00,
2013-01-22 08:53:00,20.9,6.0,30.26,NNW,328,5.0,9.0,52,0.00,,,0.00,Wunderground v.1.15,2013-01-22 13:53:00,
2013-01-22 08:58:00,21.0,6.1,30.27,West,278,1.0,11.0,52,0.00,,,0.00,Wunderground v.1.15,2013-01-22 13:58:00,
2013-01-22 09:03:00,21.1,6.2,30.27,WNW,294,9.0,15.0,52,0.00,,,0.00,Wunderground v.1.15,2013-01-22 14:03:00,
2013-01-22 09:08:00,21.3,5.5,30.27,North,355,6.0,15.0,50,0.00,,,0.00,Wunderground v.1.15,2013-01-22 14:08:00,
2013-01-22 09:13:00,21.4,5.2,30.28,WNW,291,5.0,19.0,49,0.00,,,0.00,Wunderground v.1.15,2013-01-22 14:13:00,
2013-01-22 09:18:00,21.6,4.9,30.28,WNW,300,4.0,19.0,48,0.00,,,0.00,Wunderground v.1.15,2013-01-22 14:18:00,
2013-01-22 09:23:00,21.7,5.0,30.28,NW,319,9.0,11.0,48,0.00,,,0.00,Wunderground v.1.15,2013-01-22 14:23:00,
2013-01-22 09:28:00,21.8,4.6,30.28,NW,319,4.0,15.0,47,0.00,,,0.00,Wunderground v.1.15,2013-01-22 14:28:00,
2013-01-22 09:33:00,22.1,4.9,30.29,NW,310,4.0,11.0,47,0.00,,,0.00,Wunderground v.1.15,2013-01-22 14:33:00,
2013-01-22 09:38:00,22.3,5.6,30.29,West,279,4.0,11.0,48,0.00,,,0.00,Wunderground v.1.15,2013-01-22 14:38:00,
2013-01-22 09:43:00,22.5,5.3,30.28,WNW,292,7.0,12.0,47,0.00,,,0.00,Wunderground v.1.15,2013-01-22 14:43:00,
2013-01-22 09:48:00,22.6,5.4,30.28,NNW,336,4.0,12.0,47,0.00,,,0.00,Wunderground v.1.15,2013-01-22 14:48:00,
2013-01-22 09:53:00,22.7,5.5,30.29,NW,307,6.0,15.0,47,0.00,,,0.00,Wunderground v.1.15,2013-01-22 14:53:00,
2013-01-22 09:58:00,22.9,5.2,30.28,NW,315,1.0,15.0,46,0.00,,,0.00,Wunderground v.1.15,2013-01-22 14:58:00,
2013-01-22 10:04:00,23.2,5.0,30.29,West,269,5.0,9.0,45,0.00,,,0.00,Wunderground v.1.15,2013-01-22 15:04:00,
2013-01-22 10:09:00,23.5,5.7,30.29,North,355,3.0,14.0,46,0.00,,,0.00,Wunderground v.1.15,2013-01-22 15:09:00,
2013-01-22 10:14:00,23.9,6.1,30.30,NW,306,5.0,8.0,46,0.00,,,0.00,Wunderground v.1.15,2013-01-22 15:14:00,
2013-01-22 10:19:00,24.4,6.6,30.30,North,355,6.0,8.0,46,0.00,,,0.00,Wunderground v.1.15,2013-01-22 15:19:00,
2013-01-22 10:24:00,24.7,6.3,30.30,WNW,302,8.0,8.0,45,0.00,,,0.00,Wunderground v.1.15,2013-01-22 15:24:00,
2013-01-22 10:29:00,25.0,6.1,30.31,NNW,343,0.0,10.0,44,0.00,,,0.00,Wunderground v.1.15,2013-01-22 15:29:00,
2013-01-22 10:34:00,25.3,6.9,30.31,NNW,329,0.0,9.0,45,0.00,,,0.00,Wunderground v.1.15,2013-01-22 15:34:00,
2013-01-22 10:39:00,25.7,6.3,30.31,WNW,294,0.0,10.0,43,0.00,,,0.00,Wunderground v.1.15,2013-01-22 15:39:00,
2013-01-22 10:44:00,25.9,6.4,30.32,WNW,290,3.0,10.0,43,0.00,,,0.00,Wunderground v.1.15,2013-01-22 15:44:00,
2013-01-22 10:49:00,26.1,6.1,30.31,West,263,0.0,10.0,42,0.00,,,0.00,Wunderground v.1.15,2013-01-22 15:49:00,
2013-01-22 10:54:00,26.2,6.2,30.32,WNW,300,4.0,8.0,42,0.00,,,0.00,Wunderground v.1.15,2013-01-22 15:54:00,
2013-01-22 10:59:00,26.2,6.7,30.32,North,355,7.0,10.0,43,0.00,,,0.00,Wunderground v.1.15,2013-01-22 15:59:00,
2013-01-22 11:04:00,26.3,6.8,30.32,WNW,290,4.0,13.0,43,0.00,,,0.00,Wunderground v.1.15,2013-01-22 16:04:00,
2013-01-22 11:09:00,26.3,6.8,30.32,NW,311,6.0,13.0,43,0.00,,,0.00,Wunderground v.1.15,2013-01-22 16:09:00,
2013-01-22 11:14:00,26.4,6.9,30.32,West,264,4.0,10.0,43,0.00,,,0.00,Wunderground v.1.15,2013-01-22 16:14:00,
2013-01-22 11:19:00,26.5,6.5,30.32,WNW,296,4.0,14.0,42,0.00,,,0.00,Wunderground v.1.15,2013-01-22 16:19:00,
2013-01-22 11:24:00,26.7,7.2,30.32,NW,317,11.0,11.0,43,0.00,,,0.00,Wunderground v.1.15,2013-01-22 16:24:00,
2013-01-22 11:29:00,26.9,6.8,30.31,West,279,6.0,11.0,42,0.00,,,0.00,Wunderground v.1.15,2013-01-22 16:29:00,
2013-01-22 11:34:00,27.0,6.4,30.31,West,278,6.0,14.0,41,0.00,,,0.00,Wunderground v.1.15,2013-01-22 16:34:00,
2013-01-22 11:39:00,27.3,7.7,30.32,WNW,303,0.0,14.0,43,0.00,,,0.00,Wunderground v.1.15,2013-01-22 16:39:00,
2013-01-22 11:44:00,27.7,7.6,30.31,West,266,8.0,8.0,42,0.00,,,0.00,Wunderground v.1.15,2013-01-22 16:44:00,
2013-01-22 11:49:00,27.9,6.7,30.31,WNW,296,2.0,11.0,40,0.00,,,0.00,Wunderground v.1.15,2013-01-22 16:49:00,
2013-01-22 11:54:00,28.3,7.6,30.32,West,280,4.0,8.0,41,0.00,,,0.00,Wunderground v.1.15,2013-01-22 16:54:00,
2013-01-22 11:59:00,28.6,7.3,30.32,WNW,286,4.0,9.0,40,0.00,,,0.00,Wunderground v.1.15,2013-01-22 16:59:00,
2013-01-22 12:04:00,28.9,8.1,30.31,NW,323,0.0,9.0,41,0.00,,,0.00,Wunderground v.1.15,2013-01-22 17:04:00,
2013-01-22 12:09:00,29.4,8.0,30.31,North,5,1.0,11.0,40,0.00,,,0.00,Wunderground v.1.15,2013-01-22 17:09:00,
2013-01-22 12:14:00,29.6,7.6,30.31,NNW,341,4.0,12.0,39,0.00,,,0.00,Wunderground v.1.15,2013-01-22 17:14:00,
2013-01-22 12:19:00,29.9,7.3,30.30,NW,308,3.0,12.0,38,0.00,,,0.00,Wunderground v.1.15,2013-01-22 17:19:00,
2013-01-22 12:24:00,30.1,6.3,30.30,NW,323,9.0,10.0,36,0.00,,,0.00,Wunderground v.1.15,2013-01-22 17:24:00,
2013-01-22 12:29:00,30.0,6.8,30.30,North,10,8.0,10.0,37,0.00,,,0.00,Wunderground v.1.15,2013-01-22 17:29:00,
2013-01-22 12:34:00,30.1,7.5,30.30,WNW,303,2.0,7.0,38,0.00,,,0.00,Wunderground v.1.15,2013-01-22 17:34:00,
2013-01-22 12:39:00,30.4,6.6,30.30,WNW,286,0.0,9.0,36,0.00,,,0.00,Wunderground v.1.15,2013-01-22 17:39:00,
2013-01-22 12:44:00,30.5,7.3,30.29,NNW,329,3.0,15.0,37,0.00,,,0.00,Wunderground v.1.15,2013-01-22 17:44:00,
2013-01-22 12:49:00,30.8,5.7,30.29,WSW,242,3.0,15.0,34,0.00,,,0.00,Wunderground v.1.15,2013-01-22 17:49:00,
2013-01-22 12:54:00,30.7,6.9,30.30,NW,306,12.0,12.0,36,0.00,,,0.00,Wunderground v.1.15,2013-01-22 17:54:00,
2013-01-22 12:59:00,31.0,5.9,30.29,NNW,327,8.0,12.0,34,0.00,,,0.00,Wunderground v.1.15,2013-01-22 17:59:00,
2013-01-22 13:04:00,31.2,6.0,30.29,West,265,4.0,14.0,34,0.00,,,0.00,Wunderground v.1.15,2013-01-22 18:04:00,
2013-01-22 13:09:00,31.5,6.3,30.29,NW,325,8.0,14.0,34,0.00,,,0.00,Wunderground v.1.15,2013-01-22 18:09:00,
2013-01-22 13:14:00,31.5,6.9,30.28,NW,316,1.0,10.0,35,0.00,,,0.00,Wunderground v.1.15,2013-01-22 18:14:00,
2013-01-22 13:19:00,31.8,7.2,30.27,WNW,284,4.0,10.0,35,0.00,,,0.00,Wunderground v.1.15,2013-01-22 18:19:00,
2013-01-22 13:24:00,31.9,6.0,30.27,WSW,257,5.0,11.0,33,0.00,,,0.00,Wunderground v.1.15,2013-01-22 18:24:00,
2013-01-22 13:29:00,31.8,5.2,30.27,West,279,11.0,15.0,32,0.00,,,0.00,Wunderground v.1.15,2013-01-22 18:29:00,
2013-01-22 13:34:00,31.8,6.6,30.27,WNW,292,1.0,9.0,34,0.00,,,0.00,Wunderground v.1.15,2013-01-22 18:34:00,
2013-01-22 13:40:00,32.1,5.5,30.27,West,263,9.0,14.0,32,0.00,,,0.00,Wunderground v.1.15,2013-01-22 18:40:00,
2013-01-22 13:45:00,32.3,6.4,30.27,WSW,246,8.0,14.0,33,0.00,,,0.00,Wunderground v.1.15,2013-01-22 18:45:00,
2013-01-22 13:50:00,32.3,7.0,30.27,WNW,298,8.0,11.0,34,0.00,,,0.00,Wunderground v.1.15,2013-01-22 18:50:00,
2013-01-22 13:55:00,32.5,6.5,30.27,WNW,286,3.0,20.0,33,0.00,,,0.00,Wunderground v.1.15,2013-01-22 18:55:00,
2013-01-22 14:00:00,32.6,6.6,30.26,West,268,3.0,5.0,33,0.00,,,0.00,Wunderground v.1.15,2013-01-22 19:00:00,
2013-01-22 14:05:00,32.9,6.9,30.26,NW,318,1.0,10.0,33,0.00,,,0.00,Wunderground v.1.15,2013-01-22 19:05:00,
2013-01-22 14:10:00,33.1,7.1,30.26,NNW,329,10.0,10.0,33,0.00,,,0.00,Wunderground v.1.15,2013-01-22 19:10:00,
2013-01-22 14:15:00,33.2,7.2,30.25,NNW,336,0.0,11.0,33,0.00,,,0.00,Wunderground v.1.15,2013-01-22 19:15:00,
2013-01-22 14:20:00,33.5,6.7,30.25,ENE,67,1.0,5.0,32,0.00,,,0.00,Wunderground v.1.15,2013-01-22 19:20:00,
2013-01-22 14:25:00,33.8,7.7,30.26,WNW,292,6.0,9.0,33,0.00,,,0.00,Wunderground v.1.15,2013-01-22 19:25:00,
2013-01-22 14:30:00,34.1,8.6,30.26,NW,323,4.0,5.0,34,0.00,,,0.00,Wunderground v.1.15,2013-01-22 19:30:00,
2013-01-22 14:35:00,34.2,8.0,30.26,WNW,299,7.0,12.0,33,0.00,,,0.00,Wunderground v.1.15,2013-01-22 19:35:00,
2013-01-22 14:40:00,34.1,8.6,30.26,WNW,289,5.0,5.0,34,0.00,,,0.00,Wunderground v.1.15,2013-01-22 19:40:00,
2013-01-22 14:45:00,34.1,8.0,30.26,West,270,3.0,17.0,33,0.00,,,0.00,Wunderground v.1.15,2013-01-22 19:45:00,
2013-01-22 14:50:00,34.1,8.6,30.26,WNW,300,0.0,5.0,34,0.00,,,0.00,Wunderground v.1.15,2013-01-22 19:50:00,
2013-01-22 14:55:00,33.9,8.4,30.26,NW,323,5.0,15.0,34,0.00,,,0.00,Wunderground v.1.15,2013-01-22 19:55:00,
2013-01-22 15:00:00,34.0,8.5,30.25,WNW,289,2.0,5.0,34,0.00,,,0.00,Wunderground v.1.15,2013-01-22 20:00:00,
2013-01-22 15:05:00,33.9,8.4,30.26,WNW,300,0.0,10.0,34,0.00,,,0.00,Wunderground v.1.15,2013-01-22 20:05:00,
2013-01-22 15:10:00,34.1,9.9,30.26,NW,309,0.0,4.0,36,0.00,,,0.00,Wunderground v.1.15,2013-01-22 20:10:00,
2013-01-22 15:15:00,34.4,8.9,30.26,WNW,299,4.0,12.0,34,0.00,,,0.00,Wunderground v.1.15,2013-01-22 20:15:00,
2013-01-22 15:20:00,34.4,9.5,30.26,West,263,5.0,5.0,35,0.00,,,0.00,Wunderground v.1.15,2013-01-22 20:20:00,
2013-01-22 15:25:00,34.4,8.9,30.26,NW,309,1.0,12.0,34,0.00,,,0.00,Wunderground v.1.15,2013-01-22 20:25:00,
2013-01-22 15:30:00,34.4,8.9,30.26,NW,313,7.0,8.0,34,0.00,,,0.00,Wunderground v.1.15,2013-01-22 20:30:00,
2013-01-22 15:35:00,34.4,8.9,30.26,NW,319,4.0,8.0,34,0.00,,,0.00,Wunderground v.1.15,2013-01-22 20:35:00,
2013-01-22 15:40:00,34.5,9.0,30.26,WNW,292,0.0,5.0,34,0.00,,,0.00,Wunderground v.1.15,2013-01-22 20:40:00,
2013-01-22 15:45:00,34.4,8.9,30.27,West,279,8.0,18.0,34,0.00,,,0.00,Wunderground v.1.15,2013-01-22 20:45:00,
2013-01-22 15:50:00,34.2,9.4,30.27,West,259,3.0,5.0,35,0.00,,,0.00,Wunderground v.1.15,2013-01-22 20:50:00,
2013-01-22 15:55:00,33.9,9.1,30.27,West,259,6.0,11.0,35,0.00,,,0.00,Wunderground v.1.15,2013-01-22 20:55:00,
2013-01-22 16:00:00,33.4,8.6,30.27,NW,313,0.0,4.0,35,0.00,,,0.00,Wunderground v.1.15,2013-01-22 21:00:00,
2013-01-22 16:05:00,33.2,9.1,30.28,WNW,289,9.0,16.0,36,0.00,,,0.00,Wunderground v.1.15,2013-01-22 21:05:00,
2013-01-22 16:10:00,33.0,9.5,30.28,WNW,282,2.0,3.0,37,0.00,,,0.00,Wunderground v.1.15,2013-01-22 21:10:00,
2013-01-22 16:15:00,32.9,9.4,30.28,WSW,256,10.0,10.0,37,0.00,,,0.00,Wunderground v.1.15,2013-01-22 21:15:00,
2013-01-22 16:20:00,32.6,8.6,30.28,West,277,5.0,5.0,36,0.00,,,0.00,Wunderground v.1.15,2013-01-22 21:20:00,
2013-01-22 16:25:00,32.4,8.4,30.29,WNW,291,5.0,14.0,36,0.00,,,0.00,Wunderground v.1.15,2013-01-22 21:25:00,
2013-01-22 16:30:00,32.4,9.0,30.29,West,259,3.0,5.0,37,0.00,,,0.00,Wunderground v.1.15,2013-01-22 21:30:00,
2013-01-22 16:31:00,32.4,9.6,30.29,WNW,302,4.0,5.0,38,0.00,,,0.00,Wunderground v.1.15,2013-01-22 21:31:00,
2013-01-22 16:36:00,32.5,9.1,30.29,WNW,287,0.0,9.0,37,0.00,,,0.00,Wunderground v.1.15,2013-01-22 21:36:00,
2013-01-22 16:42:00,32.4,9.6,30.29,West,278,6.0,6.0,38,0.00,,,0.00,Wunderground v.1.15,2013-01-22 21:42:00,
2013-01-22 16:47:00,32.2,9.4,30.29,WNW,292,0.0,12.0,38,0.00,,,0.00,Wunderground v.1.15,2013-01-22 21:47:00,
2013-01-22 16:52:00,32.0,8.6,30.29,WNW,294,5.0,10.0,37,0.00,,,0.00,Wunderground v.1.15,2013-01-22 21:52:00,
2013-01-22 16:57:00,31.6,8.3,30.29,WNW,293,7.0,13.0,37,0.00,,,0.00,Wunderground v.1.15,2013-01-22 21:57:00,
2013-01-22 17:02:00,31.3,8.6,30.29,NW,323,4.0,8.0,38,0.00,,,0.00,Wunderground v.1.15,2013-01-22 22:02:00,
2013-01-22 17:07:00,31.1,9.0,30.29,West,274,0.0,8.0,39,0.00,,,0.00,Wunderground v.1.15,2013-01-22 22:07:00,
2013-01-22 17:12:00,30.9,8.8,30.29,WNW,286,1.0,9.0,39,0.00,,,0.00,Wunderground v.1.15,2013-01-22 22:12:00,
2013-01-22 17:17:00,30.7,8.6,30.30,West,278,4.0,9.0,39,0.00,,,0.00,Wunderground v.1.15,2013-01-22 22:17:00,
2013-01-22 17:22:00,30.5,9.0,30.30,NNW,336,3.0,8.0,40,0.00,,,0.00,Wunderground v.1.15,2013-01-22 22:22:00,
2013-01-22 17:27:00,30.3,9.4,30.30,NW,306,0.0,8.0,41,0.00,,,0.00,Wunderground v.1.15,2013-01-22 22:27:00,
2013-01-22 17:32:00,30.1,8.7,30.30,NW,308,6.0,8.0,40,0.00,,,0.00,Wunderground v.1.15,2013-01-22 22:32:00,
2013-01-22 17:37:00,29.9,9.0,30.30,WNW,296,5.0,12.0,41,0.00,,,0.00,Wunderground v.1.15,2013-01-22 22:37:00,
2013-01-22 17:42:00,29.7,8.8,30.30,WNW,302,0.0,11.0,41,0.00,,,0.00,Wunderground v.1.15,2013-01-22 22:42:00,
2013-01-22 17:47:00,29.5,9.2,30.30,WNW,299,5.0,11.0,42,0.00,,,0.00,Wunderground v.1.15,2013-01-22 22:47:00,
2013-01-22 17:52:00,29.3,8.5,30.30,NW,316,0.0,6.0,41,0.00,,,0.00,Wunderground v.1.15,2013-01-22 22:52:00,
2013-01-22 17:57:00,29.0,9.3,30.30,WNW,299,1.0,10.0,43,0.00,,,0.00,Wunderground v.1.15,2013-01-22 22:57:00,
2013-01-22 18:02:00,28.8,8.6,30.30,NNW,346,4.0,6.0,42,0.00,,,0.00,Wunderground v.1.15,2013-01-22 23:02:00,
2013-01-22 18:07:00,28.7,9.0,30.31,North,350,0.0,10.0,43,0.00,,,0.00,Wunderground v.1.15,2013-01-22 23:07:00,
2013-01-22 18:12:00,28.5,9.3,30.31,NNW,335,8.0,12.0,44,0.00,,,0.00,Wunderground v.1.15,2013-01-22 23:12:00,
2013-01-22 18:17:00,28.3,8.1,30.31,WSW,250,0.0,13.0,42,0.00,,,0.00,Wunderground v.1.15,2013-01-22 23:17:00,
2013-01-22 18:22:00,28.2,8.0,30.32,WSW,240,3.0,8.0,42,0.00,,,0.00,Wunderground v.1.15,2013-01-22 23:22:00,
2013-01-22 18:27:00,28.0,7.8,30.32,WSW,244,3.0,9.0,42,0.00,,,0.00,Wunderground v.1.15,2013-01-22 23:27:00,
2013-01-22 18:32:00,27.9,8.3,30.32,NW,313,5.0,10.0,43,0.00,,,0.00,Wunderground v.1.15,2013-01-22 23:32:00,
2013-01-22 18:37:00,27.7,8.1,30.32,WNW,303,2.0,10.0,43,0.00,,,0.00,Wunderground v.1.15,2013-01-22 23:37:00,
2013-01-22 18:42:00,27.5,7.4,30.33,WSW,251,0.0,8.0,42,0.00,,,0.00,Wunderground v.1.15,2013-01-22 23:42:00,
2013-01-22 18:47:00,27.4,7.8,30.33,West,261,1.0,8.0,43,0.00,,,0.00,Wunderground v.1.15,2013-01-22 23:47:00,
2013-01-22 18:52:00,27.2,7.6,30.33,WNW,298,8.0,8.0,43,0.00,,,0.00,Wunderground v.1.15,2013-01-22 23:52:00,
2013-01-22 18:57:00,27.1,7.0,30.33,WNW,286,1.0,10.0,42,0.00,,,0.00,Wunderground v.1.15,2013-01-22 23:57:00,
2013-01-22 19:02:00,27.0,8.0,30.33,NW,311,0.0,9.0,44,0.00,,,0.00,Wunderground v.1.15,2013-01-23 00:02:00,
2013-01-22 19:07:00,26.9,7.4,30.33,WNW,295,0.0,9.0,43,0.00,,,0.00,Wunderground v.1.15,2013-01-23 00:07:00,
2013-01-22 19:12:00,26.7,7.2,30.33,WSW,252,0.0,3.0,43,0.00,,,0.00,Wunderground v.1.15,2013-01-23 00:12:00,
2013-01-22 19:17:00,26.6,7.6,30.33,WNW,284,2.0,5.0,44,0.00,,,0.00,Wunderground v.1.15,2013-01-23 00:17:00,
2013-01-22 19:22:00,26.5,8.0,30.33,West,261,3.0,7.0,45,0.00,,,0.00,Wunderground v.1.15,2013-01-23 00:22:00,
2013-01-22 19:27:00,26.2,7.7,30.34,WNW,292,2.0,7.0,45,0.00,,,0.00,Wunderground v.1.15,2013-01-23 00:27:00,
2013-01-22 19:32:00,26.1,7.1,30.34,WSW,251,1.0,7.0,44,0.00,,,0.00,Wunderground v.1.15,2013-01-23 00:32:00,
2013-01-22 19:38:00,26.1,7.1,30.34,West,279,0.0,7.0,44,0.00,,,0.00,Wunderground v.1.15,2013-01-23 00:38:00,
2013-01-22 19:43:00,26.1,7.6,30.35,WNW,292,3.0,6.0,45,0.00,,,0.00,Wunderground v.1.15,2013-01-23 00:43:00,
2013-01-22 19:48:00,26.0,7.5,30.35,WNW,298,4.0,8.0,45,0.00,,,0.00,Wunderground v.1.15,2013-01-23 00:48:00,
2013-01-22 19:53:00,25.8,7.4,30.35,WNW,285,0.0,6.0,45,0.00,,,0.00,Wunderground v.1.15,2013-01-23 00:53:00,
2013-01-22 19:58:00,25.8,7.4,30.36,WSW,256,7.0,8.0,45,0.00,,,0.00,Wunderground v.1.15,2013-01-23 00:58:00,
2013-01-22 20:03:00,25.8,7.8,30.36,West,261,5.0,6.0,46,0.00,,,0.00,Wunderground v.1.15,2013-01-23 01:03:00,
2013-01-22 20:08:00,25.7,7.7,30.36,West,274,0.0,6.0,46,0.00,,,0.00,Wunderground v.1.15,2013-01-23 01:08:00,
2013-01-22 20:13:00,25.5,7.6,30.36,West,263,0.0,5.0,46,0.00,,,0.00,Wunderground v.1.15,2013-01-23 01:13:00,
2013-01-22 20:18:00,25.3,6.9,30.35,SSW,201,0.0,5.0,45,0.00,,,0.00,Wunderground v.1.15,2013-01-23 01:18:00,
2013-01-22 20:23:00,25.2,6.8,30.35,SW,229,0.0,3.0,45,0.00,,,0.00,Wunderground v.1.15,2013-01-23 01:23:00,
2013-01-22 20:28:00,25.4,7.5,30.35,WSW,258,0.0,3.0,46,0.00,,,0.00,Wunderground v.1.15,2013-01-23 01:28:00,
2013-01-22 20:33:00,25.6,7.2,30.35,WNW,302,0.0,5.0,45,0.00,,,0.00,Wunderground v.1.15,2013-01-23 01:33:00,
2013-01-22 20:38:00,25.8,7.4,30.35,West,274,0.0,5.0,45,0.00,,,0.00,Wunderground v.1.15,2013-01-23 01:38:00,
2013-01-22 20:43:00,25.9,7.9,30.35,WSW,243,0.0,3.0,46,0.00,,,0.00,Wunderground v.1.15,2013-01-23 01:43:00,
2013-01-22 20:48:00,26.0,7.0,30.35,West,274,0.0,4.0,44,0.00,,,0.00,Wunderground v.1.15,2013-01-23 01:48:00,
2013-01-22 20:53:00,26.1,8.1,30.35,SW,228,0.0,3.0,46,0.00,,,0.00,Wunderground v.1.15,2013-01-23 01:53:00,
2013-01-22 20:58:00,26.2,8.2,30.35,SW,226,0.0,5.0,46,0.00,,,0.00,Wunderground v.1.15,2013-01-23 01:58:00,
2013-01-22 21:03:00,26.2,7.7,30.35,SW,234,0.0,1.0,45,0.00,,,0.00,Wunderground v.1.15,2013-01-23 02:03:00,
2013-01-22 21:08:00,26.2,7.7,30.35,NW,311,0.0,3.0,45,0.00,,,0.00,Wunderground v.1.15,2013-01-23 02:08:00,
2013-01-22 21:13:00,26.2,8.2,30.35,WNW,284,0.0,5.0,46,0.00,,,0.00,Wunderground v.1.15,2013-01-23 02:13:00,
2013-01-22 21:18:00,26.2,7.7,30.35,West,268,0.0,7.0,45,0.00,,,0.00,Wunderground v.1.15,2013-01-23 02:18:00,
2013-01-22 21:23:00,26.2,7.7,30.35,West,265,0.0,2.0,45,0.00,,,0.00,Wunderground v.1.15,2013-01-23 02:23:00,
2013-01-22 21:28:00,26.3,7.8,30.35,West,275,2.0,3.0,45,0.00,,,0.00,Wunderground v.1.15,2013-01-23 02:28:00,
2013-01-22 21:33:00,26.3,7.3,30.35,WNW,293,1.0,8.0,44,0.00,,,0.00,Wunderground v.1.15,2013-01-23 02:33:00,
2013-01-22 21:38:00,26.2,7.2,30.35,WSW,250,2.0,8.0,44,0.00,,,0.00,Wunderground v.1.15,2013-01-23 02:38:00,
2013-01-22 21:44:00,26.2,7.7,30.35,West,261,5.0,7.0,45,0.00,,,0.00,Wunderground v.1.15,2013-01-23 02:44:00,
2013-01-22 21:48:00,26.2,7.7,30.35,WNW,294,0.0,7.0,45,0.00,,,0.00,Wunderground v.1.15,2013-01-23 02:48:00,
2013-01-22 21:53:00,26.2,7.7,30.35,NW,314,0.0,3.0,45,0.00,,,0.00,Wunderground v.1.15,2013-01-23 02:53:00,
2013-01-22 21:59:00,26.2,7.2,30.35,SW,216,0.0,8.0,44,0.00,,,0.00,Wunderground v.1.15,2013-01-23 02:59:00,
2013-01-22 22:04:00,26.1,6.6,30.35,WNW,298,0.0,4.0,43,0.00,,,0.00,Wunderground v.1.15,2013-01-23 03:04:00,
2013-01-22 22:09:00,26.1,7.1,30.35,West,270,3.0,5.0,44,0.00,,,0.00,Wunderground v.1.15,2013-01-23 03:09:00,
2013-01-22 22:14:00,26.1,6.6,30.34,WNW,288,2.0,4.0,43,0.00,,,0.00,Wunderground v.1.15,2013-01-23 03:14:00,
2013-01-22 22:19:00,26.1,6.6,30.34,WNW,298,0.0,7.0,43,0.00,,,0.00,Wunderground v.1.15,2013-01-23 03:19:00,
2013-01-22 22:24:00,26.1,7.1,30.35,WNW,286,0.0,3.0,44,0.00,,,0.00,Wunderground v.1.15,2013-01-23 03:24:00,
2013-01-22 22:29:00,26.1,6.6,30.34,NW,315,0.0,5.0,43,0.00,,,0.00,Wunderground v.1.15,2013-01-23 03:29:00,
2013-01-22 22:34:00,26.0,6.5,30.34,WNW,286,0.0,3.0,43,0.00,,,0.00,Wunderground v.1.15,2013-01-23 03:34:00,
2013-01-22 22:39:00,26.0,6.5,30.35,WNW,286,3.0,4.0,43,0.00,,,0.00,Wunderground v.1.15,2013-01-23 03:39:00,
2013-01-22 22:44:00,26.0,6.0,30.35,WNW,294,0.0,5.0,42,0.00,,,0.00,Wunderground v.1.15,2013-01-23 03:44:00,
2013-01-22 22:49:00,26.0,6.5,30.35,WNW,284,2.0,7.0,43,0.00,,,0.00,Wunderground v.1.15,2013-01-23 03:49:00,
2013-01-22 22:54:00,26.0,6.0,30.35,WSW,251,0.0,5.0,42,0.00,,,0.00,Wunderground v.1.15,2013-01-23 03:54:00,
2013-01-22 22:59:00,26.0,6.5,30.35,NW,319,0.0,5.0,43,0.00,,,0.00,Wunderground v.1.15,2013-01-23 03:59:00,
2013-01-22 23:04:00,26.0,6.0,30.35,West,263,0.0,4.0,42,0.00,,,0.00,Wunderground v.1.15,2013-01-23 04:04:00,
2013-01-22 23:09:00,25.9,5.9,30.35,West,259,0.0,5.0,42,0.00,,,0.00,Wunderground v.1.15,2013-01-23 04:09:00,
2013-01-22 23:14:00,25.9,5.9,30.35,WSW,254,3.0,4.0,42,0.00,,,0.00,Wunderground v.1.15,2013-01-23 04:14:00,
2013-01-22 23:19:00,25.9,5.4,30.35,NW,304,0.0,6.0,41,0.00,,,0.00,Wunderground v.1.15,2013-01-23 04:19:00,
2013-01-22 23:24:00,25.9,5.9,30.35,WSW,253,0.0,4.0,42,0.00,,,0.00,Wunderground v.1.15,2013-01-23 04:24:00,
2013-01-22 23:29:00,25.8,5.8,30.35,WNW,301,0.0,8.0,42,0.00,,,0.00,Wunderground v.1.15,2013-01-23 04:29:00,
2013-01-22 23:34:00,25.8,5.8,30.35,WNW,284,0.0,5.0,42,0.00,,,0.00,Wunderground v.1.15,2013-01-23 04:34:00,
2013-01-22 23:39:00,25.8,5.8,30.36,WNW,288,4.0,5.0,42,0.00,,,0.00,Wunderground v.1.15,2013-01-23 04:39:00,
2013-01-22 23:44:00,25.8,6.3,30.35,West,277,6.0,7.0,43,0.00,,,0.00,Wunderground v.1.15,2013-01-23 04:44:00,
2013-01-22 23:49:00,25.8,5.3,30.35,WNW,290,0.0,8.0,41,0.00,,,0.00,Wunderground v.1.15,2013-01-23 04:49:00,
2013-01-22 23:54:00,25.8,5.8,30.35,SSE,161,5.0,5.0,42,0.00,,,0.00,Wunderground v.1.15,2013-01-23 04:54:00,
2013-01-22 23:59:00,25.8,6.3,30.35,West,277,1.0,5.0,43,0.00,,,0.00,Wunderground v.1.15,2013-01-23 04:59:00,